| time (UTC) | temp C | wind direction | speed KPH | gust KPH | rain 1hr cm | rain 24hr cm | rain mn cm | humidity % | barometer mb |
| 20260509155506 | 20 | 84 | 0.0 | 0.0 | 0.00 | 1.45 | 1.12 | 94 | 1011.8 |
| 20260509154509 | 20 | 96 | 0.0 | 0.0 | 0.00 | 1.45 | 1.12 | 94 | 1011.7 |
| 20260509154008 | 20 | 96 | 0.0 | 0.0 | 0.00 | 1.45 | 1.12 | 94 | 1011.5 |
| 20260509153508 | 20 | 117 | 0.0 | 0.0 | 0.00 | 1.45 | 1.12 | 95 | 1011.3 |
| 20260509153010 | 20 | 117 | 0.0 | 0.0 | 0.00 | 1.45 | 1.12 | 95 | 1011.4 |
| 20260509152508 | 20 | 116 | 0.0 | 0.0 | 0.00 | 1.45 | 1.12 | 95 | 1011.3 |
| 20260509151508 | 20 | 121 | 0.0 | 0.0 | 0.00 | 1.45 | 1.12 | 95 | 1011.2 |
| 20260509151009 | 20 | 127 | 0.0 | 0.0 | 0.00 | 1.45 | 1.12 | 95 | 1011.2 |
| 20260509150010 | 19 | 127 | 0.0 | 0.0 | 0.00 | 1.45 | 1.12 | 96 | 1011.2 |
| 20260509145506 | 19 | 133 | 0.0 | 0.0 | 0.00 | 1.45 | 1.12 | 96 | 1011.3 |
| 20260509145008 | 19 | 134 | 0.0 | 0.0 | 0.00 | 1.45 | 1.12 | 96 | 1011.2 |
| 20260509144508 | 18 | 134 | 0.0 | 0.0 | 0.00 | 1.45 | 1.12 | 96 | 1011.1 |
| 20260509144007 | 18 | 134 | 0.0 | 0.0 | 0.00 | 1.45 | 1.12 | 96 | 1011.3 |
| 20260509143508 | 18 | 136 | 0.0 | 0.0 | 0.00 | 1.45 | 1.12 | 96 | 1011.4 |
| 20260509143009 | 18 | 137 | 0.0 | 0.0 | 0.00 | 1.45 | 1.12 | 96 | 1011.5 |
| 20260509142506 | 18 | 140 | 0.0 | 0.0 | 0.00 | 1.45 | 1.12 | 96 | 1011.6 |
| 20260509142008 | 18 | 142 | 0.0 | 0.0 | 0.00 | 1.45 | 1.12 | 96 | 1011.5 |
| 20260509141508 | 18 | 141 | 0.0 | 0.0 | 0.00 | 1.45 | 1.12 | 96 | 1011.6 |
| 20260509141010 | 18 | 157 | 0.0 | 0.0 | 0.00 | 1.45 | 1.12 | 96 | 1011.6 |
| 20260509140508 | 18 | 157 | 0.0 | 0.0 | 0.00 | 1.45 | 1.12 | 96 | 1011.6 |
| 20260509140010 | 18 | 157 | 0.0 | 0.0 | 0.00 | 1.45 | 1.12 | 96 | 1011.5 |
| 20260509135507 | 18 | 156 | 0.0 | 0.0 | 0.00 | 1.45 | 1.12 | 96 | 1011.5 |
| 20260509135009 | 18 | 156 | 0.0 | 0.0 | 0.00 | 1.45 | 1.12 | 96 | 1011.5 |
| 20260509134508 | 17 | 162 | 0.0 | 0.0 | 0.00 | 1.45 | 1.12 | 96 | 1011.6 |
| 20260509133506 | 17 | 165 | 0.0 | 0.0 | 0.00 | 1.45 | 1.12 | 96 | 1011.8 |
| 20260509133008 | 17 | 170 | 0.0 | 0.0 | 0.00 | 1.45 | 1.12 | 96 | 1011.8 |
| 20260509132507 | 17 | 170 | 0.0 | 0.0 | 0.00 | 1.45 | 1.12 | 96 | 1011.8 |
| 20260509132008 | 17 | 170 | 0.0 | 0.0 | 0.00 | 1.45 | 1.12 | 96 | 1011.5 |
| 20260509131508 | 17 | 170 | 0.0 | 0.0 | 0.00 | 1.45 | 1.12 | 96 | 1011.7 |
| 20260509130506 | 17 | 170 | 0.0 | 0.0 | 0.00 | 1.45 | 1.12 | 96 | 1011.6 |
| 20260509125006 | 17 | 170 | 0.0 | 0.0 | 0.00 | 1.45 | 1.12 | 95 | 1011.5 |
| 20260509124506 | 17 | 170 | 0.0 | 0.0 | 0.00 | 1.45 | 1.12 | 95 | 1011.3 |
| 20260509124007 | 17 | 170 | 0.0 | 0.0 | 0.00 | 1.45 | 1.12 | 95 | 1011.3 |
| 20260509123505 | 17 | 170 | 0.0 | 0.0 | 0.00 | 1.45 | 1.12 | 95 | 1011.4 |
| 20260509122506 | 17 | 170 | 0.0 | 0.0 | 0.00 | 1.45 | 1.12 | 95 | 1011.3 |
| 20260509122007 | 17 | 170 | 0.0 | 0.0 | 0.00 | 1.45 | 1.12 | 95 | 1011.3 |
| 20260509121506 | 17 | 170 | 0.0 | 0.0 | 0.00 | 1.45 | 1.12 | 95 | 1011.3 |
| 20260509121006 | 17 | 170 | 0.0 | 0.0 | 0.00 | 1.45 | 1.12 | 95 | 1011.3 |
| 20260509120506 | 17 | 170 | 0.0 | 0.0 | 0.00 | 1.45 | 1.12 | 95 | 1011.3 |
| 20260509120009 | 17 | 170 | 0.0 | 0.0 | 0.00 | 1.45 | 1.12 | 95 | 1011.2 |
| 20260509115507 | 17 | 170 | 0.0 | 0.0 | 0.00 | 1.45 | 1.12 | 95 | 1011.3 |
| 20260509114508 | 17 | 170 | 0.0 | 0.0 | 0.00 | 1.45 | 1.12 | 95 | 1011.3 |
| 20260509114010 | 17 | 170 | 0.0 | 0.0 | 0.00 | 1.45 | 1.12 | 95 | 1011.1 |
| 20260509113508 | 17 | 170 | 0.0 | 0.0 | 0.00 | 1.45 | 1.12 | 95 | 1010.9 |
| 20260509113007 | 17 | 170 | 0.0 | 0.0 | 0.00 | 1.45 | 1.12 | 95 | 1010.8 |
| 20260509112507 | 17 | 170 | 0.0 | 0.0 | 0.00 | 1.45 | 1.12 | 95 | 1010.9 |
| 20260509112009 | 17 | 170 | 0.0 | 0.0 | 0.00 | 1.45 | 1.12 | 95 | 1010.7 |
| 20260509111507 | 17 | 170 | 0.0 | 0.0 | 0.00 | 1.45 | 1.12 | 95 | 1010.9 |
| 20260509111008 | 17 | 170 | 0.0 | 0.0 | 0.00 | 1.45 | 1.12 | 95 | 1010.8 |
| 20260509110506 | 17 | 169 | 0.0 | 0.0 | 0.00 | 1.45 | 1.12 | 95 | 1010.6 |
| 20260509110010 | 17 | 168 | 0.0 | 0.0 | 0.00 | 1.45 | 1.12 | 95 | 1010.5 |
| 20260509104507 | 17 | 169 | 0.0 | 0.0 | 0.00 | 1.45 | 1.12 | 95 | 1010.4 |
| 20260509104009 | 17 | 169 | 0.0 | 0.0 | 0.00 | 1.45 | 1.12 | 95 | 1010.2 |
| 20260509103507 | 17 | 141 | 0.0 | 0.0 | 0.00 | 1.45 | 1.12 | 95 | 1010.4 |
| 20260509103009 | 17 | 140 | 0.0 | 0.0 | 0.03 | 1.45 | 1.12 | 95 | 1010.3 |
| 20260509102507 | 17 | 141 | 0.0 | 0.0 | 0.03 | 1.45 | 1.12 | 94 | 1010.3 |
| 20260509102009 | 17 | 141 | 0.0 | 0.0 | 0.05 | 1.45 | 1.12 | 94 | 1010.4 |
| 20260509101508 | 17 | 141 | 0.0 | 0.0 | 0.15 | 1.45 | 1.12 | 94 | 1010.4 |
| 20260509101008 | 17 | 141 | 0.0 | 0.0 | 0.51 | 1.45 | 1.12 | 94 | 1010.7 |
| 20260509100507 | 17 | 141 | 0.0 | 0.0 | 0.76 | 1.45 | 1.12 | 94 | 1010.9 |
| 20260509100010 | 17 | 141 | 0.0 | 0.0 | 0.97 | 1.45 | 1.12 | 94 | 1010.7 |
| 20260509094509 | 17 | 140 | 0.0 | 0.0 | 1.12 | 1.45 | 1.12 | 94 | 1011.0 |
| 20260509094010 | 17 | 140 | 0.0 | 0.0 | 1.12 | 1.45 | 1.12 | 94 | 1011.2 |
| 20260509093508 | 17 | 140 | 0.0 | 0.0 | 1.12 | 1.45 | 1.12 | 94 | 1011.2 |
| 20260509093008 | 17 | 140 | 0.0 | 0.0 | 1.09 | 1.42 | 1.09 | 94 | 1011.6 |
| 20260509092507 | 17 | 140 | 0.0 | 0.0 | 1.09 | 1.42 | 1.09 | 94 | 1011.6 |
| 20260509092009 | 18 | 144 | 0.0 | 1.6 | 1.04 | 1.37 | 1.04 | 94 | 1011.7 |
| 20260509091508 | 18 | 144 | 0.0 | 4.8 | 0.89 | 1.22 | 0.89 | 93 | 1011.9 |
| 20260509090509 | 18 | 18 | 3.2 | 8.0 | 0.30 | 0.64 | 0.30 | 94 | 1012.4 |
| 20260509090014 | 18 | 24 | 4.8 | 9.7 | 0.13 | 0.46 | 0.13 | 94 | 1012.4 |
| 20260509085509 | 19 | 12 | 3.2 | 9.7 | 0.05 | 0.38 | 0.05 | 95 | 1012.3 |
| 20260509085008 | 19 | 19 | 0.0 | 6.4 | 0.00 | 0.33 | 0.00 | 95 | 1012.5 |
| 20260509084509 | 19 | 355 | 0.0 | 0.0 | 0.00 | 0.33 | 0.00 | 95 | 1012.2 |
| 20260509084007 | 19 | 229 | 0.0 | 0.0 | 0.00 | 0.33 | 0.00 | 95 | 1011.2 |
| 20260509083506 | 18 | 228 | 0.0 | 0.0 | 0.00 | 0.33 | 0.00 | 95 | 1011.2 |
| 20260509083007 | 18 | 228 | 0.0 | 0.0 | 0.00 | 0.33 | 0.00 | 94 | 1010.9 |
| 20260509082506 | 18 | 228 | 0.0 | 0.0 | 0.00 | 0.33 | 0.00 | 94 | 1010.7 |
| 20260509082007 | 18 | 228 | 0.0 | 0.0 | 0.00 | 0.33 | 0.00 | 94 | 1010.5 |
| 20260509081008 | 18 | 228 | 0.0 | 0.0 | 0.00 | 0.33 | 0.00 | 94 | 1010.2 |
| 20260509080507 | 18 | 232 | 0.0 | 0.0 | 0.00 | 0.33 | 0.00 | 94 | 1010.1 |
| 20260509075507 | 19 | 232 | 0.0 | 0.0 | 0.00 | 0.33 | 0.00 | 94 | 1009.9 |
| 20260509075008 | 19 | 212 | 0.0 | 0.0 | 0.00 | 0.33 | 0.00 | 94 | 1009.8 |
| 20260509074509 | 19 | 212 | 0.0 | 0.0 | 0.00 | 0.33 | 0.00 | 94 | 1010.1 |
| 20260509074009 | 19 | 212 | 0.0 | 0.0 | 0.00 | 0.33 | 0.00 | 94 | 1010.1 |
| 20260509073508 | 19 | 212 | 0.0 | 0.0 | 0.00 | 0.33 | 0.00 | 94 | 1010.1 |
| 20260509073010 | 19 | 212 | 0.0 | 0.0 | 0.00 | 0.33 | 0.00 | 94 | 1010.1 |
| 20260509072507 | 19 | 212 | 0.0 | 0.0 | 0.00 | 0.33 | 0.00 | 94 | 1010.2 |
| 20260509072009 | 19 | 212 | 0.0 | 0.0 | 0.00 | 0.33 | 0.00 | 94 | 1010.3 |
| 20260509071508 | 19 | 212 | 0.0 | 0.0 | 0.00 | 0.33 | 0.00 | 94 | 1010.3 |
| 20260509071010 | 19 | 212 | 0.0 | 0.0 | 0.00 | 0.33 | 0.00 | 94 | 1010.5 |
| 20260509065506 | 19 | 207 | 0.0 | 0.0 | 0.00 | 0.33 | 0.00 | 95 | 1010.8 |
| 20260509065007 | 19 | 207 | 0.0 | 0.0 | 0.00 | 0.33 | 0.00 | 95 | 1010.8 |
| 20260509064007 | 19 | 207 | 0.0 | 0.0 | 0.00 | 0.33 | 0.00 | 95 | 1011.1 |
| 20260509063507 | 19 | 207 | 0.0 | 0.0 | 0.00 | 0.33 | 0.00 | 95 | 1011.2 |
| 20260509063008 | 19 | 207 | 0.0 | 0.0 | 0.00 | 0.33 | 0.00 | 95 | 1011.2 |
| 20260509062505 | 19 | 207 | 0.0 | 0.0 | 0.00 | 0.33 | 0.00 | 94 | 1011.2 |
| 20260509062007 | 19 | 207 | 0.0 | 0.0 | 0.00 | 0.33 | 0.00 | 94 | 1011.4 |
| 20260509061507 | 19 | 207 | 0.0 | 0.0 | 0.00 | 0.33 | 0.00 | 94 | 1011.3 |
| 20260509061007 | 19 | 207 | 0.0 | 0.0 | 0.00 | 0.33 | 0.00 | 94 | 1011.5 |
| 20260509060508 | 19 | 207 | 0.0 | 0.0 | 0.00 | 0.33 | 0.00 | 94 | 1011.4 |
| 20260509060009 | 19 | 207 | 0.0 | 0.0 | 0.00 | 0.33 | 0.00 | 94 | 1011.5 |
| 20260509055507 | 19 | 207 | 0.0 | 0.0 | 0.00 | 0.33 | 0.00 | 94 | 1011.6 |
| 20260509054510 | 19 | 207 | 0.0 | 0.0 | 0.00 | 0.33 | 0.00 | 94 | 1011.6 |
| 20260509054008 | 19 | 207 | 0.0 | 0.0 | 0.00 | 0.33 | 0.00 | 94 | 1011.6 |
| 20260509053508 | 19 | 207 | 0.0 | 0.0 | 0.00 | 0.33 | 0.00 | 94 | 1011.6 |
| 20260509053009 | 19 | 207 | 0.0 | 0.0 | 0.00 | 0.33 | 0.00 | 94 | 1011.4 |
| 20260509052507 | 19 | 207 | 0.0 | 0.0 | 0.00 | 0.33 | 0.00 | 94 | 1011.4 |
| 20260509052008 | 19 | 207 | 0.0 | 0.0 | 0.00 | 0.33 | 0.00 | 94 | 1011.4 |
| 20260509051508 | 19 | 207 | 0.0 | 0.0 | 0.00 | 0.33 | 0.00 | 94 | 1011.3 |
| 20260509051007 | 19 | 207 | 0.0 | 0.0 | 0.00 | 0.33 | 0.00 | 94 | 1011.2 |
| 20260509050507 | 19 | 207 | 0.0 | 0.0 | 0.00 | 0.33 | 0.00 | 94 | 1011.2 |
| 20260509050014 | 19 | 207 | 0.0 | 0.0 | 0.00 | 0.33 | 0.00 | 94 | 1011.1 |
| 20260509045509 | 19 | 207 | 0.0 | 0.0 | 0.00 | 0.33 | 0.33 | 94 | 1011.2 |
| 20260509045010 | 19 | 207 | 0.0 | 0.0 | 0.00 | 0.33 | 0.33 | 94 | 1011.0 |
| 20260509044510 | 19 | 207 | 0.0 | 0.0 | 0.00 | 0.33 | 0.33 | 94 | 1011.1 |
| 20260509044010 | 19 | 355 | 0.0 | 0.0 | 0.00 | 0.33 | 0.33 | 94 | 1011.1 |
| 20260509043508 | 19 | 355 | 0.0 | 0.0 | 0.00 | 0.33 | 0.33 | 94 | 1011.0 |
| 20260509042509 | 19 | 64 | 0.0 | 1.6 | 0.00 | 0.33 | 0.33 | 94 | 1011.2 |
| 20260509042010 | 19 | 64 | 0.0 | 3.2 | 0.00 | 0.33 | 0.33 | 94 | 1011.2 |
| 20260509041510 | 19 | 64 | 0.0 | 3.2 | 0.00 | 0.33 | 0.33 | 94 | 1011.0 |
| 20260509041010 | 19 | 65 | 1.6 | 6.4 | 0.00 | 0.33 | 0.33 | 94 | 1010.9 |
| 20260509040509 | 19 | 99 | 1.6 | 6.4 | 0.00 | 0.33 | 0.33 | 94 | 1011.0 |
| 20260509040011 | 19 | 267 | 3.2 | 12.9 | 0.00 | 0.33 | 0.33 | 94 | 1010.8 |
| 20260509035507 | 19 | 220 | 3.2 | 12.9 | 0.00 | 0.33 | 0.33 | 94 | 1010.6 |
| 20260509035008 | 19 | 106 | 3.2 | 8.0 | 0.00 | 0.33 | 0.33 | 94 | 1010.5 |
| 20260509034508 | 19 | 170 | 3.2 | 11.3 | 0.00 | 0.33 | 0.33 | 94 | 1010.6 |
| 20260509033508 | 19 | 120 | 1.6 | 8.0 | 0.00 | 0.33 | 0.33 | 94 | 1010.3 |
| 20260509033010 | 19 | 74 | 3.2 | 11.3 | 0.00 | 0.33 | 0.33 | 93 | 1010.2 |
| 20260509032509 | 19 | 225 | 3.2 | 11.3 | 0.00 | 0.33 | 0.33 | 93 | 1010.3 |
| 20260509032008 | 19 | 188 | 1.6 | 12.9 | 0.00 | 0.33 | 0.33 | 93 | 1010.6 |
| 20260509031508 | 19 | 250 | 1.6 | 8.0 | 0.00 | 0.33 | 0.33 | 93 | 1010.7 |
| 20260509031009 | 19 | 213 | 1.6 | 8.0 | 0.00 | 0.33 | 0.33 | 93 | 1010.9 |
| 20260509030508 | 19 | 261 | 1.6 | 9.7 | 0.00 | 0.33 | 0.33 | 93 | 1010.9 |
| 20260509030011 | 19 | 251 | 3.2 | 11.3 | 0.00 | 0.33 | 0.33 | 93 | 1010.7 |
| 20260509025008 | 19 | 167 | 1.6 | 6.4 | 0.00 | 0.33 | 0.33 | 93 | 1010.4 |
| 20260509023508 | 19 | 163 | 0.0 | 8.0 | 0.00 | 0.33 | 0.33 | 93 | 1010.1 |
| 20260509023009 | 19 | 184 | 0.0 | 0.0 | 0.00 | 0.33 | 0.33 | 93 | 1010.1 |
| 20260509022508 | 19 | 174 | 0.0 | 0.0 | 0.00 | 0.33 | 0.33 | 93 | 1010.2 |
| 20260509022010 | 19 | 88 | 0.0 | 0.0 | 0.00 | 0.33 | 0.33 | 92 | 1010.4 |
| 20260509021508 | 19 | 88 | 0.0 | 0.0 | 0.00 | 0.33 | 0.33 | 92 | 1010.6 |
| 20260509021009 | 19 | 88 | 0.0 | 0.0 | 0.00 | 0.33 | 0.33 | 92 | 1010.7 |
| 20260509020011 | 19 | 38 | 0.0 | 0.0 | 0.00 | 0.33 | 0.33 | 92 | 1010.7 |
| 20260509015508 | 19 | 38 | 0.0 | 0.0 | 0.00 | 0.33 | 0.33 | 92 | 1010.8 |
| 20260509015009 | 19 | 38 | 0.0 | 0.0 | 0.00 | 0.33 | 0.33 | 92 | 1010.5 |
| 20260509014508 | 19 | 38 | 0.0 | 0.0 | 0.00 | 0.33 | 0.33 | 92 | 1010.4 |
| 20260509014010 | 19 | 38 | 0.0 | 0.0 | 0.00 | 0.33 | 0.33 | 92 | 1010.4 |
| 20260509013508 | 19 | 38 | 0.0 | 0.0 | 0.00 | 0.33 | 0.33 | 92 | 1010.7 |
| 20260509013009 | 19 | 38 | 0.0 | 0.0 | 0.00 | 0.33 | 0.33 | 92 | 1011.0 |
| 20260509012508 | 19 | 38 | 0.0 | 0.0 | 0.00 | 0.33 | 0.33 | 92 | 1011.0 |
| 20260509012011 | 19 | 38 | 0.0 | 0.0 | 0.00 | 0.33 | 0.33 | 92 | 1011.0 |
| 20260509011509 | 19 | 38 | 0.0 | 0.0 | 0.00 | 0.33 | 0.33 | 92 | 1011.1 |
| 20260509011009 | 19 | 38 | 0.0 | 0.0 | 0.00 | 0.33 | 0.33 | 91 | 1010.8 |
| 20260509010509 | 19 | 104 | 0.0 | 0.0 | 0.00 | 0.33 | 0.33 | 91 | 1010.6 |
| 20260509010011 | 19 | 103 | 0.0 | 0.0 | 0.00 | 0.33 | 0.33 | 91 | 1010.9 |
| 20260509005507 | 19 | 103 | 0.0 | 0.0 | 0.00 | 0.33 | 0.33 | 91 | 1011.2 |
| 20260509005008 | 19 | 103 | 0.0 | 0.0 | 0.00 | 0.33 | 0.33 | 91 | 1011.3 |
| 20260509004508 | 19 | 103 | 0.0 | 0.0 | 0.00 | 0.33 | 0.33 | 91 | 1011.3 |
| 20260509004009 | 19 | 103 | 0.0 | 0.0 | 0.00 | 0.33 | 0.33 | 91 | 1011.1 |
| 20260509003508 | 19 | 103 | 0.0 | 0.0 | 0.00 | 0.33 | 0.33 | 91 | 1010.7 |
| 20260509003009 | 19 | 103 | 0.0 | 0.0 | 0.00 | 0.33 | 0.33 | 91 | 1010.8 |
| 20260509002508 | 19 | 103 | 0.0 | 0.0 | 0.00 | 0.33 | 0.33 | 91 | 1010.7 |
| 20260509002009 | 19 | 103 | 0.0 | 0.0 | 0.00 | 0.33 | 0.33 | 91 | 1010.5 |
| 20260509001510 | 19 | 118 | 0.0 | 0.0 | 0.00 | 0.33 | 0.33 | 90 | 1010.7 |
| 20260509001010 | 19 | 118 | 0.0 | 0.0 | 0.00 | 0.33 | 0.33 | 90 | 1011.0 |
| 20260508235508 | 20 | 118 | 0.0 | 0.0 | 0.00 | 0.33 | 0.33 | 90 | 1011.3 |
| 20260508234508 | 20 | 118 | 0.0 | 0.0 | 0.00 | 0.33 | 0.33 | 90 | 1011.1 |
| 20260508234009 | 20 | 117 | 0.0 | 0.0 | 0.00 | 0.33 | 0.33 | 90 | 1011.2 |
| 20260508233009 | 20 | 113 | 0.0 | 0.0 | 0.00 | 0.33 | 0.33 | 90 | 1011.1 |
| 20260508232508 | 20 | 120 | 0.0 | 0.0 | 0.00 | 0.33 | 0.33 | 90 | 1011.3 |
| 20260508232009 | 20 | 121 | 0.0 | 0.0 | 0.00 | 0.33 | 0.33 | 90 | 1011.1 |
| 20260508231009 | 19 | 84 | 0.0 | 0.0 | 0.00 | 0.33 | 0.33 | 90 | 1010.9 |
| 20260508230012 | 19 | 164 | 0.0 | 0.0 | 0.00 | 0.33 | 0.33 | 89 | 1011.1 |
| 20260508225508 | 20 | 163 | 0.0 | 0.0 | 0.00 | 0.33 | 0.33 | 89 | 1011.3 |
| 20260508225009 | 20 | 164 | 0.0 | 0.0 | 0.00 | 0.33 | 0.33 | 89 | 1011.3 |
| 20260508224508 | 20 | 163 | 0.0 | 0.0 | 0.00 | 0.33 | 0.33 | 89 | 1011.3 |
| 20260508224008 | 19 | 164 | 0.0 | 3.2 | 0.00 | 0.33 | 0.33 | 89 | 1011.3 |
| 20260508223507 | 20 | 163 | 0.0 | 3.2 | 0.00 | 0.33 | 0.33 | 88 | 1011.3 |
| 20260508223008 | 20 | 247 | 1.6 | 4.8 | 0.00 | 0.33 | 0.33 | 88 | 1011.2 |
| 20260508222507 | 20 | 261 | 0.0 | 4.8 | 0.00 | 0.33 | 0.33 | 88 | 1011.2 |
| 20260508222008 | 19 | 142 | 0.0 | 0.0 | 0.00 | 0.33 | 0.33 | 88 | 1011.1 |
| 20260508221508 | 19 | 142 | 0.0 | 0.0 | 0.00 | 0.33 | 0.33 | 88 | 1010.9 |
| 20260508221010 | 20 | 167 | 0.0 | 3.2 | 0.00 | 0.33 | 0.33 | 88 | 1011.3 |
| 20260508220507 | 20 | 168 | 0.0 | 3.2 | 0.00 | 0.33 | 0.33 | 88 | 1011.0 |
| 20260508220012 | 20 | 163 | 0.0 | 3.2 | 0.00 | 0.33 | 0.33 | 88 | 1011.0 |
| 20260508214510 | 20 | 148 | 1.6 | 4.8 | 0.00 | 0.33 | 0.33 | 87 | 1011.3 |
| 20260508214010 | 20 | 243 | 1.6 | 9.7 | 0.00 | 0.33 | 0.33 | 87 | 1011.4 |
| 20260508213508 | 20 | 164 | 1.6 | 9.7 | 0.00 | 0.33 | 0.33 | 86 | 1011.5 |
| 20260508211509 | 20 | 203 | 1.6 | 6.4 | 0.00 | 0.33 | 0.33 | 86 | 1011.8 |
| 20260508211009 | 20 | 240 | 1.6 | 6.4 | 0.00 | 0.33 | 0.33 | 86 | 1011.8 |
| 20260508210507 | 20 | 94 | 1.6 | 6.4 | 0.00 | 0.33 | 0.33 | 86 | 1011.8 |
| 20260508210011 | 20 | 183 | 1.6 | 6.4 | 0.00 | 0.33 | 0.33 | 87 | 1011.6 |
| 20260508205507 | 20 | 107 | 1.6 | 3.2 | 0.00 | 0.33 | 0.33 | 87 | 1011.8 |
| 20260508205008 | 20 | 108 | 1.6 | 4.8 | 0.00 | 0.33 | 0.33 | 87 | 1011.7 |
| 20260508204509 | 19 | 153 | 0.0 | 4.8 | 0.00 | 0.33 | 0.33 | 88 | 1011.7 |
| 20260508204009 | 19 | 219 | 0.0 | 0.0 | 0.00 | 0.33 | 0.33 | 87 | 1011.7 |
| 20260508203508 | 19 | 73 | 0.0 | 0.0 | 0.00 | 0.33 | 0.33 | 87 | 1011.7 |
| 20260508203016 | 19 | 121 | 0.0 | 3.2 | 0.00 | 0.33 | 0.33 | 87 | 1012.0 |
| 20260508202508 | 19 | 122 | 1.6 | 9.7 | 0.00 | 0.33 | 0.33 | 87 | 1011.9 |
| 20260508202008 | 19 | 133 | 1.6 | 4.8 | 0.00 | 0.33 | 0.33 | 87 | 1012.0 |
| 20260508201509 | 19 | 200 | 1.6 | 4.8 | 0.00 | 0.33 | 0.33 | 87 | 1012.2 |
| 20260508201008 | 19 | 191 | 1.6 | 6.4 | 0.00 | 0.33 | 0.33 | 86 | 1012.0 |
| 20260508200010 | 19 | 148 | 1.6 | 6.4 | 0.00 | 0.33 | 0.33 | 86 | 1012.2 |
| 20260508195507 | 19 | 107 | 1.6 | 6.4 | 0.00 | 0.33 | 0.33 | 86 | 1012.2 |
| 20260508194507 | 20 | 84 | 1.6 | 6.4 | 0.00 | 0.33 | 0.33 | 86 | 1012.3 |
| 20260508194009 | 20 | 163 | 1.6 | 4.8 | 0.00 | 0.33 | 0.33 | 85 | 1012.4 |
| 20260508193506 | 20 | 97 | 3.2 | 12.9 | 0.00 | 0.33 | 0.33 | 85 | 1012.4 |
| 20260508193010 | 21 | 114 | 3.2 | 12.9 | 0.00 | 0.33 | 0.33 | 85 | 1012.4 |
| 20260508192507 | 21 | 92 | 3.2 | 6.4 | 0.00 | 0.33 | 0.33 | 86 | 1012.3 |
| 20260508192009 | 21 | 99 | 1.6 | 4.8 | 0.00 | 0.33 | 0.33 | 87 | 1012.2 |
| 20260508191508 | 21 | 102 | 3.2 | 9.7 | 0.00 | 0.33 | 0.33 | 86 | 1012.4 |
| 20260508191008 | 21 | 157 | 3.2 | 14.5 | 0.00 | 0.33 | 0.33 | 86 | 1012.5 |
| 20260508190509 | 20 | 156 | 1.6 | 14.5 | 0.00 | 0.33 | 0.33 | 87 | 1012.6 |
| 20260508190011 | 20 | 209 | 1.6 | 11.3 | 0.00 | 0.33 | 0.33 | 88 | 1012.6 |
| 20260508185508 | 20 | 66 | 3.2 | 11.3 | 0.00 | 0.33 | 0.33 | 88 | 1012.5 |
| 20260508185010 | 20 | 80 | 1.6 | 6.4 | 0.00 | 0.33 | 0.33 | 89 | 1012.7 |
| 20260508184509 | 20 | 109 | 1.6 | 4.8 | 0.00 | 0.33 | 0.33 | 90 | 1013.0 |
| 20260508184009 | 19 | 92 | 1.6 | 6.4 | 0.00 | 0.33 | 0.33 | 90 | 1012.8 |
| 20260508183506 | 19 | 94 | 1.6 | 6.4 | 0.00 | 0.33 | 0.33 | 90 | 1012.9 |
| 20260508182506 | 19 | 148 | 0.0 | 4.8 | 0.00 | 0.33 | 0.33 | 90 | 1012.9 |
| 20260508182009 | 19 | 29 | 0.0 | 0.0 | 0.00 | 0.33 | 0.33 | 91 | 1013.2 |
| 20260508181507 | 18 | 36 | 0.0 | 1.6 | 0.00 | 0.33 | 0.33 | 91 | 1012.8 |
| 20260508181008 | 18 | 32 | 1.6 | 3.2 | 0.00 | 0.33 | 0.33 | 90 | 1012.6 |
| 20260508180508 | 18 | 30 | 1.6 | 6.4 | 0.00 | 0.33 | 0.33 | 89 | 1012.9 |
| 20260508180009 | 19 | 133 | 1.6 | 6.4 | 0.00 | 0.33 | 0.33 | 90 | 1013.6 |
| 20260508175507 | 19 | 97 | 1.6 | 6.4 | 0.00 | 0.33 | 0.33 | 90 | 1013.5 |
| 20260508175008 | 19 | 91 | 1.6 | 6.4 | 0.00 | 0.33 | 0.33 | 90 | 1013.5 |
| 20260508174507 | 19 | 135 | 1.6 | 8.0 | 0.00 | 0.33 | 0.33 | 91 | 1013.7 |
| 20260508174010 | 18 | 136 | 1.6 | 4.8 | 0.00 | 0.33 | 0.33 | 92 | 1013.7 |
| 20260508173010 | 18 | 110 | 1.6 | 4.8 | 0.00 | 0.33 | 0.33 | 93 | 1013.2 |
| 20260508172009 | 17 | 20 | 1.6 | 6.4 | 0.00 | 0.33 | 0.33 | 94 | 1013.3 |
| 20260508171507 | 17 | 84 | 1.6 | 6.4 | 0.03 | 0.33 | 0.33 | 93 | 1013.1 |
| 20260508170506 | 16 | 19 | 1.6 | 6.4 | 0.08 | 0.33 | 0.33 | 94 | 1013.8 |
| 20260508170007 | 16 | 34 | 1.6 | 3.2 | 0.08 | 0.33 | 0.33 | 94 | 1014.0 |
| 20260508165505 | 16 | 19 | 1.6 | 4.8 | 0.10 | 0.33 | 0.33 | 94 | 1014.1 |
| 20260508165007 | 16 | 30 | 3.2 | 6.4 | 0.15 | 0.33 | 0.33 | 94 | 1013.6 |
| 20260508164507 | 16 | 32 | 1.6 | 8.0 | 0.18 | 0.33 | 0.33 | 94 | 1013.5 |
| 20260508163507 | 15 | 5 | 0.0 | 0.0 | 0.23 | 0.33 | 0.33 | 94 | 1013.7 |
| 20260508163008 | 15 | 5 | 0.0 | 0.0 | 0.33 | 0.33 | 0.33 | 94 | 1013.8 |
| 20260508162505 | 15 | 5 | 1.6 | 4.8 | 0.33 | 0.33 | 0.33 | 93 | 1013.8 |
| 20260508162008 | 15 | 5 | 1.6 | 6.4 | 0.33 | 0.33 | 0.33 | 93 | 1013.6 |
| 20260508161507 | 15 | 19 | 1.6 | 6.4 | 0.30 | 0.30 | 0.30 | 93 | 1014.3 |